Location: Aldenham
(51.6667°N, 0.3500°W)
Time: 03:48:26
(UTC+00:00)

A-11 Canister half - Pass Details

Date: 19 February 2026
Orbit: 1512 x 1687 km, 47.2° (Epoch: 7 March)

Event Time Altitude Azimuth Distance (km) Brightness Sun altitude
Rises 02:38:04 0° 286° (WNW) 4,889 - -40.4°
Reaches altitude 10° 02:41:30 10° 279° (W) 3,878 - -40.0°
Maximum altitude 02:50:19 39° 215° (SW) 2,239 - -38.9°
Exits shadow 02:58:37 11° 152° (SSE) 3,682 10.9 -37.9°
Drops below altitude 10° 02:58:50 10° 151° (SSE) 3,741 10.9 -37.8°
Sets 03:02:06 0° 144° (SE) 4,701 11.6 -37.4°
